Station PLXA2 - 9451054 - Port Alexander, AK Image indicating link to RSS feed of recent meteorological observations for station PLXA2


Conditions at PLXA2 as of
(11:00 am AKDT)
1900 GMT on 05/24/2024:
     

Click on the graph icon in the table below to see a time series plot of the last five days of that observation.

5-day plot - Wind Direction Wind Direction (WDIR):WNW ( 290 deg true )
5-day plot - Wind Speed Wind Speed (WSPD): 4.1 kts
5-day plot - Wind Gust Wind Gust (GST): 8.0 kts
5-day plot - Atmospheric Pressure Atmospheric Pressure (PRES):29.92 in
5-day plot - Pressure Tendency Pressure Tendency (PTDY):+0.00 in ( Steady )
5-day plot - Air Temperature Air Temperature (ATMP): 50.9 °F
5-day plot - Water Temperature Water Temperature (WTMP): 48.2 °F
5-day plot - Wind Chill Wind Chill (CHILL): 49.5 °F
5-day plot - Wind Speed at 10 Meters Wind Speed at 10 meters (WSPD10M): 3.9 kts
5-day plot - Wind Speed at 20 Meters Wind Speed at 20 meters (WSPD20M): 3.9 kts
5-day plot -  Wind Speed, Wind Gust and Atmospheric Pressure Combined plot of Wind Speed, Gust, and Air Pressure
NOS Water Level Observation Network Water Level
Previous observations
TIME
(AKDT)
5-day plot - Wind Direction
WDIR
 
5-day plot - Wind Speed
WSPD
kts
5-day plot - Wind Gust
GST
kts
5-day plot - Wave Height
WVHT
ft
5-day plot - Dominant Wave Period
DPD
sec
5-day plot - Average Wave Period
APD
sec
5-day plot - Mean Wave Direction
MWD
 
5-day plot - Atmospheric Pressure
PRES
in
5-day plot - Pressure Tendency
PTDY
in
5-day plot - Air Temperature
ATMP
°F
5-day plot - Water Temperature
WTMP
°F
5-day plot - Dew Point
DEWP
°F
5-day plot - Salinity
SAL
psu
5-day plot - Visibility
VIS
nmi
5-day plot - Tide (above MLLW)
TIDE
ft
2024-05-24 10:54 am SW 6.0 8.9----29.92- 50.2 48.2----
2024-05-24 10:48 amWSW 7.0 11.1----29.92- 50.0 48.2----
2024-05-24 10:42 amWSW 7.0 12.0----29.92- 49.8 48.4----
2024-05-24 10:36 am W 6.0 8.9----29.92- 50.2 48.4----
2024-05-24 10:30 amWNW 5.1 9.9----29.92- 50.2 48.4----
2024-05-24 10:24 amWSW 7.0 12.0----29.92- 49.6 48.4----
2024-05-24 10:18 am W 6.0 8.9----29.92- 49.6 48.4----
2024-05-24 10:12 am W 5.1 8.9----29.92- 50.0 48.4----
2024-05-24 10:06 amWSW 5.1 8.9----29.92- 49.5 48.4----
2024-05-24 10:00 am W 2.9 7.0----29.92+0.01 49.6 48.4----
2024-05-24 09:54 amWSW 6.0 8.0----29.92- 49.3 48.4----
2024-05-24 09:48 amWSW 6.0 8.9----29.92- 49.6 48.4----
2024-05-24 09:42 amWSW 6.0 8.9----29.92- 49.3 48.4----
2024-05-24 09:36 amWSW 4.1 8.0----29.92- 49.3 48.4----
2024-05-24 09:30 am SW 5.1 8.0----29.92- 48.7 48.4----
2024-05-24 09:24 amWSW 6.0 8.9----29.92- 48.6 48.4----
2024-05-24 09:18 amSSW 5.1 8.9----29.92- 49.5 48.4----
2024-05-24 09:12 amSSW 1.0 4.1----29.92- 50.0 48.4----
2024-05-24 09:06 amSSW 1.9 5.1----29.92- 48.9 48.4----
2024-05-24 09:00 amWSW 5.1 8.0----29.92+0.00 48.4 48.6----
2024-05-24 08:54 am SW 5.1 8.0----29.92- 48.6 48.7----
2024-05-24 08:48 am SW 2.9 8.0----29.92- 48.4 48.7----
2024-05-24 08:42 amWSW 6.0 8.0----29.92- 47.8 48.7----
2024-05-24 08:36 amWSW 4.1 7.0----29.92- 48.0 48.7----
2024-05-24 08:30 amWSW 6.0 8.0----29.92- 48.0 48.7----
2024-05-24 08:24 amWNW 2.9 6.0----29.92- 48.2 48.6----
2024-05-24 08:18 amWSW 2.9 5.1----29.92- 48.4 48.6----
2024-05-24 08:12 am W 4.1 7.0----29.92- 48.0 48.6----
2024-05-24 08:06 am W 4.1 5.1----29.92- 48.4 48.6----
2024-05-24 08:00 am W 4.1 7.0----29.92+0.00 48.0 48.6----
2024-05-24 07:54 amWSW 2.9 6.0----29.92- 48.0 48.6----
2024-05-24 07:48 amWSW 4.1 7.0----29.92- 48.0 48.6----
2024-05-24 07:42 am W 4.1 7.0----29.92- 48.2 48.6----
2024-05-24 07:36 amSSW 1.9 2.9----29.92- 48.4 48.6----
2024-05-24 07:30 am- 0.0 1.9----29.92- 48.9 48.4----
2024-05-24 07:24 am- 0.0 1.9----29.91- 49.3 48.4----
2024-05-24 07:18 am E 1.0 2.9----29.91- 48.9 48.4----
2024-05-24 07:12 am S 1.9 5.1----29.91- 48.6 48.4----
2024-05-24 07:06 amSSW 4.1 6.0----29.92- 48.4 48.4----
2024-05-24 07:00 amWSW 1.9 6.0----29.91+0.00 48.4 48.4----
2024-05-24 06:54 am SW 2.9 6.0----29.91- 48.2 48.2----
2024-05-24 06:48 amSSW 1.9 4.1----29.92- 48.9 48.2----
2024-05-24 06:42 amNNW 1.0 4.1----29.92- 48.9 48.2----
2024-05-24 06:36 am S 2.9 5.1----29.91- 47.8 48.2----
2024-05-24 06:30 am- 0.0 6.0----29.92- 47.8 48.2----
2024-05-24 06:24 amWSW 2.9 5.1----29.92- 47.3 48.2----
2024-05-24 06:18 am S 1.9 7.0----29.92- 47.3 48.2----
2024-05-24 06:12 amSSW 2.9 6.0----29.92- 46.8 48.2----
2024-05-24 06:06 am S 2.9 5.1----29.92- 46.6 48.2----
2024-05-24 06:00 am- 0.0 2.9----29.92+0.00 46.4 48.0----
2024-05-24 05:54 am S 2.9 5.1----29.92- 46.2 48.0----
2024-05-24 05:48 am S 1.9 7.0----29.92- 46.2 48.0----
2024-05-24 05:42 am SW 1.0 7.0----29.92- 46.2 48.0----
2024-05-24 05:36 am SW 4.1 7.0----29.92- 46.0 48.0----
2024-05-24 05:30 am- 0.0 4.1----29.92- 45.9 48.0----
2024-05-24 05:24 amWSW 1.9 5.1----29.92- 45.9 48.2----
2024-05-24 05:18 am W 1.9 6.0----29.92- 45.7 48.2----
2024-05-24 05:12 amWNW 1.0 4.1----29.92- 45.1 48.2----
2024-05-24 05:06 am NW 1.0 2.9----29.92- 45.1 48.2----
2024-05-24 05:00 am E 1.0 2.9----29.92+0.01 45.1 48.2----
2024-05-24 04:54 amNNW 2.9 7.0----29.92- 45.5 48.2----
2024-05-24 04:48 amWSW 5.1 9.9----29.92- 45.7 48.2----
2024-05-24 04:42 am W 4.1 9.9----29.92- 45.7 48.2----
2024-05-24 04:36 am W 6.0 13.0----29.91- 45.9 48.2----
2024-05-24 04:30 am W 4.1 7.0----29.91- 45.5 48.0----
2024-05-24 04:24 am W 4.1 9.9----29.91- 45.9 48.2----
2024-05-24 04:18 am W 1.9 11.1----29.92- 45.5 48.0----
2024-05-24 04:12 amWSW 5.1 9.9----29.91- 45.7 47.8----
2024-05-24 04:06 am W 6.0 9.9----29.92- 45.7 47.8----
2024-05-24 04:00 am NW 6.0 11.1----29.92+0.00 45.9 47.7----
2024-05-24 03:54 am W 8.9 13.0----29.92- 45.7 47.5----
2024-05-24 03:48 am W 6.0 15.9----29.92- 45.7 47.7----
2024-05-24 03:42 amWSW 8.9 15.9----29.92- 45.9 47.7----
2024-05-24 03:36 am W 6.0 14.0----29.92- 45.7 47.7----
2024-05-24 03:30 am W 5.1 12.0----29.92- 45.5 47.7----
2024-05-24 03:24 am W 6.0 11.1----29.92- 45.3 47.7----
2024-05-24 03:18 amWNW 5.1 12.0----29.92- 45.5 47.7----
2024-05-24 03:12 amWSW 6.0 8.9----29.91- 45.5 47.5----
2024-05-24 03:06 amWSW 2.9 7.0----29.92- 45.5 47.5----
2024-05-24 03:00 amWSW 2.9 8.0----29.92+0.01 45.1 47.3----
2024-05-24 02:54 am W 2.9 9.9----29.92- 45.5 47.3----
2024-05-24 02:48 amWNW 5.1 8.9----29.92- 45.5 47.5----
2024-05-24 02:42 am SW 7.0 13.0----29.92- 45.3 47.5----
2024-05-24 02:36 amWSW 7.0 12.0----29.92- 45.3 47.5----
2024-05-24 02:30 amWSW 8.0 13.0----29.92- 45.5 47.5----
2024-05-24 02:24 am NW 1.9 8.0----29.92- 45.5 47.7----
2024-05-24 02:18 am W 7.0 13.0----29.92- 45.7 47.5----
2024-05-24 02:12 amSSW 1.9 9.9----29.91- 45.5 47.3----
2024-05-24 02:06 am E 1.9 6.0----29.91- 45.0 47.3----
2024-05-24 02:00 amENE 1.9 8.0----29.91+0.01 45.5 47.3----
2024-05-24 01:54 am SW 7.0 12.0----29.91- 45.7 47.5----
2024-05-24 01:48 am SW 5.1 15.0----29.91- 45.7 47.5----
2024-05-24 01:42 amSSW 8.9 15.0----29.91- 45.9 47.5----
2024-05-24 01:36 am SW 7.0 11.1----29.91- 45.9 47.5----
2024-05-24 01:30 amWSW 5.1 14.0----29.91- 45.7 47.5----
2024-05-24 01:24 am W 2.9 13.0----29.91- 45.7 47.5----
2024-05-24 01:18 amWSW 7.0 15.0----29.91- 45.9 47.5----
2024-05-24 01:12 amWSW 8.9 14.0----29.91- 46.0 47.5----
2024-05-24 01:06 amWSW 6.0 14.0----29.91- 45.7 47.5----
2024-05-24 01:00 am W 9.9 18.1----29.91+0.01 45.9 47.5----
2024-05-24 12:54 am W 11.1 15.9----29.91- 46.0 47.5----
2024-05-24 12:48 amWNW 7.0 12.0----29.91- 45.3 47.5----
2024-05-24 12:42 amWSW 9.9 15.9----29.91- 45.5 47.7----
2024-05-24 12:36 am W 8.0 19.0----29.91- 45.7 47.7----
2024-05-24 12:30 am W 8.9 14.0----29.91- 45.9 47.7----
2024-05-24 12:24 am W 11.1 18.1----29.91- 45.9 47.7----
2024-05-24 12:18 am W 7.0 18.1----29.91- 45.9 47.7----
2024-05-24 12:12 amWSW 8.0 15.0----29.91- 46.0 47.7----
2024-05-24 12:06 amWSW 9.9 18.1----29.91- 46.2 47.7----
2024-05-24 12:00 amWSW 9.9 15.9----29.91+0.01 46.2 47.7----
2024-05-23 11:54 pmWSW 12.0 15.0----29.91- 46.2 47.7----
2024-05-23 11:48 pm W 11.1 19.0----29.91- 46.6 47.7----
2024-05-23 11:42 pm W 4.1 13.0----29.90- 46.6 47.7----
2024-05-23 11:36 pm W 7.0 21.0----29.90- 46.4 47.7----
2024-05-23 11:30 pm W 9.9 17.1----29.91- 46.4 47.7----
2024-05-23 11:24 pmWNW 12.0 19.0----29.91- 46.6 47.7----
2024-05-23 11:18 pm W 8.0 14.0----29.91- 46.4 47.7----
2024-05-23 11:12 pm W 11.1 15.9----29.91- 46.4 47.7----
2024-05-23 11:06 pm NW 13.0 25.1----29.91- 46.2 47.7----
2024-05-23 11:00 pmWNW 8.0 12.0----29.90+0.01 46.2 47.7----
2024-05-23 10:54 pm W 9.9 21.0----29.90- 46.6 47.7----
2024-05-23 10:48 pm W 11.1 21.0----29.90- 46.8 47.7----
2024-05-23 10:42 pm NW 14.0 24.1----29.90- 46.6 47.7----
2024-05-23 10:36 pm W 11.1 22.9----29.90- 46.6 47.7----
2024-05-23 10:30 pm W 8.0 25.1----29.90- 46.6 47.7----
2024-05-23 10:24 pmWNW 8.0 21.0----29.90- 46.6 47.7----
2024-05-23 10:18 pm W 13.0 27.0----29.90- 46.8 47.7----
2024-05-23 10:12 pmWSW 11.1 17.1----29.90- 46.8 47.8----
2024-05-23 10:06 pmWNW 8.9 19.0----29.90- 46.6 47.8----
2024-05-23 10:00 pm W 8.0 20.0----29.90+0.02- 47.8----
2024-05-23 09:54 pm W 12.0 17.1----29.90-- 47.8----
2024-05-23 09:48 pm W 7.0 15.0----29.90- 46.8 47.8----
2024-05-23 09:42 pmWNW 8.9 18.1----29.90- 47.1 47.8----
2024-05-23 09:36 pm W 9.9 14.0----29.90- 47.1 47.8----
2024-05-23 09:30 pmWNW 7.0 17.1----29.90- 47.1 47.8----
2024-05-23 09:24 pmWNW 7.0 17.1----29.90- 47.3 47.8----
2024-05-23 09:18 pm W 8.9 19.0----29.90- 47.3 47.8----
2024-05-23 09:12 pm W 6.0 15.9----29.89- 47.1 47.8----
2024-05-23 09:06 pm W 8.9 15.9----29.89- 47.1 47.8----
2024-05-23 09:00 pm W 11.1 19.0----29.89+0.01 47.1 47.8----
2024-05-23 08:54 pmWNW 11.1 20.0----29.89- 46.8 47.8----
2024-05-23 08:48 pmWNW 9.9 15.9----29.88-- 47.8----
2024-05-23 08:42 pm NW 12.0 19.0----29.89-- 47.8----
2024-05-23 08:36 pmWSW 9.9 19.0----29.89-- 47.8----
2024-05-23 08:30 pmWNW 6.0 15.0----29.89- 46.8 47.8----
2024-05-23 08:24 pm NW 12.0 19.0----29.89- 46.8 47.8----
2024-05-23 08:18 pm W 9.9 15.9----29.89- 46.9 47.8----
2024-05-23 08:12 pm W 11.1 18.1----29.89- 46.9 48.0----
2024-05-23 08:06 pmWSW 8.0 19.0----29.89- 46.8 48.0----
2024-05-23 08:00 pm NW 8.9 19.0----29.89+0.01 47.1 48.0----
2024-05-23 07:54 pmWNW 7.0 18.1----29.89- 47.1 48.0----
2024-05-23 07:48 pmWNW 6.0 14.0----29.89- 47.1 48.0----
2024-05-23 07:42 pm NW 5.1 21.0----29.89- 46.9 48.0----
2024-05-23 07:36 pmWSW 7.0 15.0----29.89- 46.9 48.0----
2024-05-23 07:30 pmWNW 4.1 18.1----29.89- 46.9 48.0----
2024-05-23 07:24 pm NW 5.1 15.0----29.88- 46.9 48.0----
2024-05-23 07:18 pmWSW 4.1 12.0----29.88- 47.1 48.2----
2024-05-23 07:12 pmWNW 6.0 13.0----29.88- 47.3 48.0----
2024-05-23 07:06 pm W 13.0 22.0----29.88- 47.5 48.0----
2024-05-23 07:00 pm W 5.1 21.0----29.88+0.02 48.2 48.2----
2024-05-23 06:54 pm SW 6.0 15.0----29.88- 48.2 48.2----
2024-05-23 06:48 pmSSE 4.1 8.0----29.88- 49.5 48.2----
2024-05-23 06:42 pm W 6.0 9.9----29.88- 48.6 48.0----
2024-05-23 06:36 pm W 5.1 8.0----29.88- 49.1 48.0----
2024-05-23 06:30 pm NW 2.9 9.9----29.88- 49.5 48.0----
2024-05-23 06:24 pm W 5.1 11.1----29.88- 48.6 48.0----
2024-05-23 06:18 pmWSW 8.0 13.0----29.88- 48.4 48.0----
2024-05-23 06:12 pm SW 6.0 11.1----29.88- 48.6 48.2----
2024-05-23 06:06 pm W 8.0 15.0----29.88- 48.7 48.0----
2024-05-23 06:00 pmWSW 4.1 8.0----29.88+0.03 48.6 48.0----
2024-05-23 05:54 pm W 5.1 7.0----29.88- 48.4 48.0----
2024-05-23 05:48 pmNNW 7.0 11.1----29.88- 48.2 48.0----
2024-05-23 05:42 pm NW 4.1 7.0----29.88- 48.2 48.0----
2024-05-23 05:36 pmWSW 5.1 11.1----29.88- 47.7 48.0----
2024-05-23 05:30 pmWSW 4.1 7.0----29.88- 48.0 48.2----
2024-05-23 05:24 pm W 2.9 8.0----29.88- 48.2 48.2----
2024-05-23 05:18 pmWNW 4.1 8.0----29.88- 48.0 48.0----
2024-05-23 05:12 pmWSW 5.1 12.0----29.88- 47.5 48.0----
2024-05-23 05:06 pmWSW 5.1 8.9----29.87- 47.5 48.0----
2024-05-23 05:00 pm W 2.9 8.9----29.88+0.04 47.7 48.2----
2024-05-23 04:54 pmWSW 7.0 11.1----29.87- 47.3 48.0----
2024-05-23 04:48 pmWSW 7.0 12.0----29.87- 47.7 47.8----
2024-05-23 04:42 pm W 4.1 8.0----29.87- 48.2 48.0----
2024-05-23 04:36 pm SW 5.1 8.0----29.87- 48.0 47.8----
2024-05-23 04:30 pmWSW 6.0 8.9----29.87- 48.2 47.8----
2024-05-23 04:24 pm W 1.9 7.0----29.86- 48.7 47.8----
2024-05-23 04:18 pm SW 2.9 8.0----29.86- 48.7 47.8----
2024-05-23 04:12 pm W 1.0 7.0----29.86- 48.9 47.8----
2024-05-23 04:06 pm W 4.1 7.0----29.86- 48.6 47.8----
2024-05-23 04:00 pmWSW 5.1 12.0----29.86+0.04 48.4 47.8----
2024-05-23 03:54 pmWSW 4.1 8.0----29.86- 48.6 47.8----
2024-05-23 03:48 pmWSW 6.0 9.9----29.86- 48.9 47.8----
2024-05-23 03:42 pmNNW 2.9 5.1----29.86- 49.8 47.8----
2024-05-23 03:36 pmNNW 2.9 8.0----29.85- 49.3 47.8----
2024-05-23 03:30 pm N 1.9 9.9----29.85- 49.5 47.8----
2024-05-23 03:24 pm NW 5.1 8.0----29.85- 49.3 47.8----
2024-05-23 03:18 pmWNW 4.1 11.1----29.85- 49.5 47.8----
2024-05-23 03:12 pmNNW 9.9 14.0----29.85- 49.1 47.8----
2024-05-23 03:06 pmWSW 7.0 13.0----29.85- 48.6 47.8----
2024-05-23 03:00 pm W 8.9 12.0----29.85+0.05 48.4 47.8----
2024-05-23 02:54 pm W 5.1 11.1----29.85- 48.9 47.8----
2024-05-23 02:48 pmWSW 6.0 14.0----29.85- 49.3 47.8----
2024-05-23 02:42 pm W 5.1 8.9----29.85- 49.6 48.0----
2024-05-23 02:36 pm SW 5.1 11.1----29.85- 49.6 47.8----
2024-05-23 02:30 pm NW 4.1 15.9----29.84- 50.0 48.0----
2024-05-23 02:24 pmNNW 5.1 8.9----29.84- 49.8 48.0----
2024-05-23 02:18 pm SW 2.9 8.9----29.84- 49.5 48.0----
2024-05-23 02:12 pmWSW 4.1 8.9----29.84- 49.6 48.0----
2024-05-23 02:06 pm SW 4.1 8.0----29.84- 49.5 48.0----
2024-05-23 02:00 pmWSW 1.9 13.0----29.83+0.04 49.5 48.0----
2024-05-23 01:54 pmWSW 7.0 11.1----29.83- 49.5 48.0----
2024-05-23 01:48 pmWSW 7.0 13.0----29.83- 49.6 48.0----
2024-05-23 01:42 pm NW 6.0 11.1----29.83- 49.8 48.0----
2024-05-23 01:36 pm NW 5.1 9.9----29.82- 50.0 48.0----
2024-05-23 01:30 pm NW 4.1 12.0----29.82- 50.0 48.0----
2024-05-23 01:24 pm W 7.0 11.1----29.82- 50.0 48.0----
2024-05-23 01:18 pmWSW 4.1 7.0----29.82- 50.4 48.0----
2024-05-23 01:12 pm NW 2.9 4.1----29.82- 50.7 48.0----
2024-05-23 01:06 pmWNW 2.9 7.0----29.82- 50.7 48.0----
2024-05-23 01:00 pmWSW 1.9 5.1----29.82+0.04 50.7 48.0----
2024-05-23 12:54 pm SW 1.9 4.1----29.81- 50.7 48.0----
2024-05-23 12:48 pm S 1.9 5.1----29.81- 50.9 48.0----
2024-05-23 12:42 pm S 1.9 5.1----29.81- 50.7 48.0----
2024-05-23 12:36 pmSSW 1.9 5.1----29.81- 50.7 48.0----
2024-05-23 12:30 pmSSW 2.9 5.1----29.81- 51.1 48.0----
2024-05-23 12:24 pmSSW 1.0 2.9----29.80- 51.1 48.0----
2024-05-23 12:18 pm NW 1.9 2.9----29.80- 51.1 48.0----
2024-05-23 12:12 pmSSW 1.9 4.1----29.80- 50.5 48.2----
2024-05-23 12:06 pm- 0.0 2.9----29.80- 51.1 48.2----
2024-05-23 12:00 pm- 0.0 2.9----29.80+0.03 51.1 48.2----
2024-05-23 11:54 am- 0.0 1.0----29.80- 51.3 48.2----
2024-05-23 11:48 am- 0.0 1.9----29.80- 50.5 48.2----
2024-05-23 11:42 am SW 2.9 7.0----29.80- 49.6 48.2----
2024-05-23 11:36 am NW 2.9 6.0----29.80- 49.8 48.2----
2024-05-23 11:30 am SW 1.9 5.1----29.80- 49.8 48.4----
2024-05-23 11:24 am- 0.0 4.1----29.80- 50.4 48.4----
2024-05-23 11:18 amWNW 1.0 5.1----29.80- 49.6 48.4----
2024-05-23 11:12 am SW 5.1 7.0----29.80- 49.5 48.4----
2024-05-23 11:06 amSSW 1.9 6.0----29.79- 49.5 48.6----
2024-05-23 11:00 amSSW 2.9 8.0----29.79+0.02 49.1 48.6----
2024-05-23 10:54 am S 4.1 9.9----29.79- 48.9 48.6----